• în România
  • Lista ţărilor
  • Pe 7 zile
  • Temperatura apei
  • Hartă satelitară
  • Meteo pe hartă
  • Widget-uri
  • user-avatar
    Intrare

    Meteo pe oră la Bolshie Karkaly

    Astăzi, 17 Octombrie, Miercuri

    Timp Temperatura Precipitaţii Vânt Presiune Umiditate
    00:00 +3°C° 0 mm 3 m/s 733 mmHg 95%
    01:00 +3°C° 0 mm 3 m/s 732 mmHg 96%
    02:00 +3°C° 0 mm 3 m/s 732 mmHg 95%
    03:00 +3°C° 0 mm 3 m/s 732 mmHg 95%
    04:00 +4°C° 0 mm 3 m/s 732 mmHg 95%
    05:00 +4°C° 0 mm 4 m/s 731 mmHg 94%
    06:00 +4°C° 0 mm 4 m/s 731 mmHg 94%
    07:00 +4°C° 0 mm 4 m/s 731 mmHg 93%
    08:00 +5°C° 0 mm 5 m/s 730 mmHg 89%
    09:00 +6°C° 0 mm 5 m/s 730 mmHg 85%
    10:00 +7°C° 0 mm 6 m/s 730 mmHg 81%
    11:00 +8°C° 0 mm 6 m/s 729 mmHg 75%
    12:00 +9°C° 0 mm 6 m/s 729 mmHg 70%
    13:00 +10°C° 0 mm 6 m/s 729 mmHg 65%
    14:00 +10°C° 0 mm 6 m/s 729 mmHg 68%
    15:00 +9°C° 0 mm 6 m/s 729 mmHg 72%
    16:00 +9°C° 0 mm 6 m/s 729 mmHg 75%
    17:00 +8°C° 0 mm 6 m/s 729 mmHg 75%
    18:00 +6°C° 0 mm 7 m/s 730 mmHg 76%
    19:00 +6°C° 0 mm 7 m/s 730 mmHg 76%
    20:00 +5°C° 0 mm 6 m/s 731 mmHg 75%
    21:00 +4°C° 0 mm 6 m/s 731 mmHg 75%
    22:00 +2°C° 0 mm 6 m/s 732 mmHg 74%
    23:00 +2°C° 0 mm 5 m/s 732 mmHg 76%

    Mâine, 18 Octombrie, Joi

    Timp Temperatura Precipitaţii Vânt Presiune Umiditate
    00:00 +1°C° 0 mm 5 m/s 733 mmHg 77%
    01:00 +1°C° 0 mm 5 m/s 733 mmHg 79%
    02:00 +1°C° 0 mm 4 m/s 734 mmHg 82%
    03:00 0°C° 0 mm 4 m/s 734 mmHg 84%
    04:00 0°C° 0 mm 4 m/s 734 mmHg 86%
    05:00 -1°C° 0 mm 4 m/s 735 mmHg 88%
    06:00 0°C° 0 mm 3 m/s 735 mmHg 89%
    07:00 0°C° 0 mm 3 m/s 735 mmHg 91%
    08:00 0°C° 0 mm 4 m/s 735 mmHg 84%
    09:00 +1°C° 0 mm 4 m/s 735 mmHg 77%
    10:00 +2°C° 0 mm 5 m/s 736 mmHg 70%
    11:00 +5°C° 0 mm 5 m/s 736 mmHg 66%
    12:00 +6°C° 0 mm 5 m/s 736 mmHg 61%
    13:00 +7°C° 0 mm 5 m/s 736 mmHg 56%
    14:00 +6°C° 0 mm 5 m/s 736 mmHg 58%
    15:00 +6°C° 0 mm 5 m/s 736 mmHg 59%
    16:00 +6°C° 0 mm 4 m/s 735 mmHg 60%
    17:00 +5°C° 0 mm 4 m/s 735 mmHg 65%
    18:00 +4°C° 0 mm 3 m/s 735 mmHg 70%
    19:00 +3°C° 0 mm 3 m/s 735 mmHg 75%
    20:00 +3°C° 0 mm 3 m/s 735 mmHg 76%
    21:00 +2°C° 0 mm 3 m/s 735 mmHg 78%
    22:00 +3°C° 0 mm 2 m/s 735 mmHg 79%
    23:00 +2°C° 0 mm 3 m/s 735 mmHg 80%

    Poimâine, 19 Octombrie, Vineri

    Timp Temperatura Precipitaţii Vânt Presiune Umiditate
    00:00 +2°C° 0 mm 3 m/s 735 mmHg 80%
    01:00 +1°C° 0 mm 3 m/s 735 mmHg 81%
    02:00 +2°C° 0 mm 3 m/s 735 mmHg 79%
    03:00 +1°C° 0 mm 4 m/s 734 mmHg 77%
    04:00 +1°C° 0 mm 4 m/s 734 mmHg 75%
    05:00 +1°C° 0 mm 4 m/s 734 mmHg 76%
    06:00 +1°C° 0 mm 4 m/s 734 mmHg 77%
    07:00 +1°C° 0 mm 5 m/s 733 mmHg 77%
    08:00 +2°C° 0 mm 5 m/s 733 mmHg 76%
    09:00 +5°C° 0 mm 5 m/s 733 mmHg 75%
    10:00 +5°C° 0 mm 6 m/s 733 mmHg 73%
    11:00 +7°C° 0 mm 6 m/s 733 mmHg 71%
    12:00 +8°C° 0 mm 6 m/s 733 mmHg 69%
    13:00 +10°C° 0 mm 7 m/s 733 mmHg 67%
    14:00 +10°C° 0 mm 6 m/s 732 mmHg 68%
    15:00 +10°C° 0 mm 6 m/s 732 mmHg 69%
    16:00 +10°C° 0 mm 6 m/s 732 mmHg 69%
    17:00 +9°C° 0 mm 5 m/s 732 mmHg 73%
    18:00 +8°C° 0 mm 5 m/s 732 mmHg 77%
    19:00 +7°C° 0 mm 5 m/s 732 mmHg 81%
    20:00 +7°C° 0 mm 5 m/s 732 mmHg 83%
    21:00 +7°C° 0 mm 5 m/s 732 mmHg 84%
    22:00 +7°C° 0 mm 5 m/s 731 mmHg 86%
    23:00 +7°C° 0 mm 5 m/s 731 mmHg 85%

    20 Octombrie, Sâmbătă

    Timp Temperatura Precipitaţii Vânt Presiune Umiditate
    00:00 +7°C° 0 mm 5 m/s 731 mmHg 85%
    01:00 +7°C° 0 mm 5 m/s 731 mmHg 85%
    02:00 +7°C° 0 mm 5 m/s 731 mmHg 85%
    03:00 +6°C° 0 mm 5 m/s 731 mmHg 85%
    04:00 +6°C° 0 mm 5 m/s 731 mmHg 85%
    05:00 +6°C° 0 mm 5 m/s 730 mmHg 83%
    06:00 +6°C° 0 mm 5 m/s 730 mmHg 81%
    07:00 +5°C° 0 mm 6 m/s 730 mmHg 79%
    08:00 +5°C° 0 mm 6 m/s 730 mmHg 75%
    09:00 +6°C° 0 mm 7 m/s 730 mmHg 70%
    10:00 +8°C° 0 mm 7 m/s 730 mmHg 65%
    11:00 +9°C° 0 mm 7 m/s 730 mmHg 62%
    12:00 +10°C° 0 mm 8 m/s 730 mmHg 59%
    13:00 +11°C° 0 mm 8 m/s 729 mmHg 57%
    14:00 +10°C° 0.2 mm 8 m/s 729 mmHg 58%
    15:00 +10°C° 0.2 mm 7 m/s 729 mmHg 60%
    16:00 +10°C° 0.2 mm 7 m/s 729 mmHg 62%
    17:00 +9°C° 0.3 mm 6 m/s 729 mmHg 69%
    18:00 +8°C° 0.3 mm 5 m/s 729 mmHg 76%
    19:00 +7°C° 0.3 mm 4 m/s 730 mmHg 84%
    20:00 +6°C° 0 mm 4 m/s 730 mmHg 86%
    21:00 +5°C° 0 mm 3 m/s 730 mmHg 88%
    22:00 +5°C° 0 mm 3 m/s 730 mmHg 90%
    23:00 +4°C° 0 mm 3 m/s 731 mmHg 90%

    21 Octombrie, Duminică

    Timp Temperatura Precipitaţii Vânt Presiune Umiditate
    00:00 +3°C° 0 mm 3 m/s 731 mmHg 90%
    01:00 +3°C° 0 mm 3 m/s 731 mmHg 90%
    02:00 +4°C° 0 mm 2 m/s 731 mmHg 91%
    03:00 +3°C° 0 mm 2 m/s 731 mmHg 92%
    04:00 +3°C° 0 mm 2 m/s 732 mmHg 92%
    05:00 +2°C° 0 mm 2 m/s 732 mmHg 92%
    06:00 +2°C° 0 mm 2 m/s 732 mmHg 92%
    07:00 +2°C° 0 mm 2 m/s 732 mmHg 92%
    08:00 +3°C° 0 mm 2 m/s 733 mmHg 86%
    09:00 +3°C° 0 mm 3 m/s 733 mmHg 80%
    10:00 +4°C° 0 mm 3 m/s 733 mmHg 73%
    11:00 +5°C° 0 mm 3 m/s 733 mmHg 69%
    12:00 +5°C° 0 mm 3 m/s 734 mmHg 65%
    13:00 +7°C° 0 mm 3 m/s 734 mmHg 61%
    14:00 +7°C° 0 mm 3 m/s 734 mmHg 62%
    15:00 +7°C° 0 mm 3 m/s 734 mmHg 63%
    16:00 +7°C° 0 mm 3 m/s 734 mmHg 64%
    17:00 +6°C° 0 mm 2 m/s 734 mmHg 68%
    18:00 +5°C° 0 mm 2 m/s 734 mmHg 72%
    19:00 +4°C° 0 mm 2 m/s 734 mmHg 77%
    20:00 +5°C° 0 mm 1 m/s 734 mmHg 79%
    21:00 +4°C° 0 mm 1 m/s 734 mmHg 81%
    22:00 +4°C° 0 mm 1 m/s 734 mmHg 83%
    23:00 +4°C° 0 mm 1 m/s 734 mmHg 84%

    22 Octombrie, Luni

    Timp Temperatura Precipitaţii Vânt Presiune Umiditate
    00:00 +3°C° 0 mm 1 m/s 734 mmHg 85%
    01:00 +2°C° 0 mm 0 m/s 734 mmHg 87%
    02:00 +2°C° 0 mm 0 m/s 734 mmHg 87%
    03:00 +2°C° 0 mm 0 m/s 734 mmHg 87%
    04:00 +2°C° 0 mm 0 m/s 734 mmHg 87%
    05:00 +1°C° 0 mm 0 m/s 734 mmHg 87%
    06:00 +1°C° 0 mm 0 m/s 734 mmHg 88%
    07:00 +1°C° 0 mm 0 m/s 734 mmHg 88%
    08:00 +3°C° 0 mm 1 m/s 734 mmHg 84%
    09:00 +4°C° 0 mm 1 m/s 735 mmHg 80%
    10:00 +5°C° 0 mm 1 m/s 735 mmHg 76%
    11:00 +5°C° 0 mm 1 m/s 735 mmHg 72%
    12:00 +6°C° 0 mm 1 m/s 735 mmHg 68%
    13:00 +5°C° 0 mm 2 m/s 735 mmHg 65%
    14:00 +5°C° 0 mm 2 m/s 735 mmHg 65%
    15:00 +5°C° 0 mm 2 m/s 735 mmHg 65%
    16:00 +5°C° 0 mm 2 m/s 734 mmHg 65%
    17:00 +4°C° 0 mm 2 m/s 735 mmHg 69%
    18:00 +4°C° 0 mm 2 m/s 735 mmHg 73%
    19:00 +3°C° 0 mm 2 m/s 735 mmHg 76%
    20:00 +2°C° 0 mm 2 m/s 735 mmHg 79%
    21:00 +2°C° 0 mm 2 m/s 735 mmHg 81%
    22:00 +2°C° 0 mm 1 m/s 735 mmHg 84%
    23:00 +2°C° 0 mm 1 m/s 735 mmHg 85%
    Arată mai mult